• Em Portugal
  • Lista de países
  • Para 7 dias
  • Temperatura da água
  • Mapas de satélite
  • Mapa do tempo
  • Widgets de tempo
  • user-avatar
    Iniciar Sessão

    Previsão horária em Kupowo

    Hoje, 18 Outubro, Quinta-feira

    Tempo Temperatura Precipitação Vento Pressão Humidade
    00:00 +10°C° 0 mm 2 m/s 749 mmHg 68%
    01:00 +10°C° 0 mm 2 m/s 749 mmHg 70%
    02:00 +10°C° 0 mm 2 m/s 749 mmHg 72%
    03:00 +9°C° 0 mm 2 m/s 748 mmHg 75%
    04:00 +9°C° 0 mm 2 m/s 748 mmHg 78%
    05:00 +9°C° 0 mm 2 m/s 748 mmHg 80%
    06:00 +9°C° 0 mm 2 m/s 748 mmHg 82%
    07:00 +9°C° 0 mm 2 m/s 747 mmHg 83%
    08:00 +9°C° 0 mm 2 m/s 747 mmHg 84%
    09:00 +12°C° 0 mm 2 m/s 747 mmHg 77%
    10:00 +14°C° 0 mm 2 m/s 747 mmHg 69%
    11:00 +16°C° 0 mm 2 m/s 747 mmHg 62%
    12:00 +17°C° 0 mm 2 m/s 747 mmHg 58%
    13:00 +18°C° 0 mm 2 m/s 746 mmHg 55%
    14:00 +19°C° 0 mm 2 m/s 746 mmHg 51%
    15:00 +18°C° 0 mm 2 m/s 746 mmHg 55%
    16:00 +16°C° 0 mm 1 m/s 746 mmHg 60%
    17:00 +15°C° 0 mm 1 m/s 746 mmHg 64%
    18:00 +14°C° 0 mm 1 m/s 746 mmHg 67%
    19:00 +13°C° 0 mm 1 m/s 746 mmHg 70%
    20:00 +12°C° 0 mm 1 m/s 746 mmHg 73%
    21:00 +12°C° 0 mm 1 m/s 746 mmHg 74%
    22:00 +12°C° 0 mm 1 m/s 746 mmHg 75%
    23:00 +11°C° 0 mm 1 m/s 746 mmHg 76%

    Amanhã, 19 Outubro, Sexta-feira

    Tempo Temperatura Precipitação Vento Pressão Humidade
    00:00 +11°C° 0 mm 1 m/s 746 mmHg 78%
    01:00 +11°C° 0 mm 1 m/s 746 mmHg 80%
    02:00 +10°C° 0 mm 1 m/s 746 mmHg 81%
    03:00 +10°C° 0 mm 1 m/s 746 mmHg 84%
    04:00 +10°C° 0 mm 1 m/s 746 mmHg 86%
    05:00 +8°C° 0 mm 2 m/s 746 mmHg 89%
    06:00 +8°C° 0 mm 2 m/s 746 mmHg 90%
    07:00 +8°C° 0 mm 2 m/s 747 mmHg 91%
    08:00 +8°C° 0 mm 2 m/s 747 mmHg 93%
    09:00 +9°C° 0 mm 2 m/s 747 mmHg 89%
    10:00 +10°C° 0 mm 2 m/s 748 mmHg 85%
    11:00 +11°C° 0 mm 3 m/s 748 mmHg 81%
    12:00 +11°C° 0 mm 3 m/s 748 mmHg 80%
    13:00 +11°C° 0 mm 3 m/s 748 mmHg 78%
    14:00 +12°C° 0 mm 3 m/s 748 mmHg 77%
    15:00 +11°C° 0 mm 3 m/s 748 mmHg 78%
    16:00 +10°C° 0 mm 2 m/s 748 mmHg 79%
    17:00 +10°C° 0 mm 2 m/s 748 mmHg 80%
    18:00 +9°C° 0 mm 2 m/s 749 mmHg 82%
    19:00 +8°C° 0 mm 2 m/s 749 mmHg 84%
    20:00 +8°C° 0 mm 1 m/s 750 mmHg 87%
    21:00 +8°C° 0 mm 1 m/s 750 mmHg 88%
    22:00 +7°C° 0 mm 1 m/s 750 mmHg 89%
    23:00 +7°C° 0 mm 1 m/s 750 mmHg 89%

    Depois de amanhã, 20 Outubro, Sábado

    Tempo Temperatura Precipitação Vento Pressão Humidade
    00:00 +6°C° 0 mm 1 m/s 750 mmHg 90%
    01:00 +6°C° 0 mm 1 m/s 750 mmHg 90%
    02:00 +6°C° 0 mm 1 m/s 751 mmHg 90%
    03:00 +5°C° 0 mm 1 m/s 750 mmHg 90%
    04:00 +5°C° 0 mm 1 m/s 750 mmHg 91%
    05:00 +5°C° 0 mm 1 m/s 750 mmHg 91%
    06:00 +5°C° 0 mm 1 m/s 751 mmHg 91%
    07:00 +5°C° 0 mm 1 m/s 751 mmHg 90%
    08:00 +5°C° 0 mm 1 m/s 751 mmHg 90%
    09:00 +7°C° 0 mm 1 m/s 751 mmHg 83%
    10:00 +8°C° 0 mm 2 m/s 751 mmHg 75%
    11:00 +10°C° 0 mm 2 m/s 751 mmHg 68%
    12:00 +10°C° 0 mm 3 m/s 751 mmHg 67%
    13:00 +11°C° 0 mm 3 m/s 751 mmHg 66%
    14:00 +11°C° 0 mm 4 m/s 751 mmHg 64%
    15:00 +11°C° 0 mm 4 m/s 751 mmHg 68%
    16:00 +10°C° 0 mm 4 m/s 751 mmHg 72%
    17:00 +10°C° 0 mm 3 m/s 751 mmHg 75%
    18:00 +8°C° 0 mm 4 m/s 751 mmHg 77%
    19:00 +8°C° 0 mm 4 m/s 751 mmHg 79%
    20:00 +7°C° 0 mm 4 m/s 750 mmHg 81%
    21:00 +7°C° 0.1 mm 4 m/s 750 mmHg 83%
    22:00 +7°C° 0.1 mm 4 m/s 751 mmHg 84%
    23:00 +8°C° 0.1 mm 4 m/s 751 mmHg 85%

    21 Outubro, Domingo

    Tempo Temperatura Precipitação Vento Pressão Humidade
    00:00 +7°C° 0.1 mm 4 m/s 751 mmHg 86%
    01:00 +7°C° 0.1 mm 4 m/s 750 mmHg 88%
    02:00 +7°C° 0.1 mm 3 m/s 750 mmHg 89%
    03:00 +5°C° 0 mm 3 m/s 751 mmHg 91%
    04:00 +5°C° 0 mm 3 m/s 751 mmHg 93%
    05:00 +4°C° 0 mm 3 m/s 751 mmHg 95%
    06:00 +4°C° 0 mm 3 m/s 751 mmHg 95%
    07:00 +4°C° 0 mm 3 m/s 751 mmHg 94%
    08:00 +3°C° 0 mm 3 m/s 752 mmHg 94%
    09:00 +5°C° 0 mm 3 m/s 752 mmHg 86%
    10:00 +7°C° 0 mm 3 m/s 752 mmHg 78%
    11:00 +9°C° 0 mm 3 m/s 752 mmHg 69%
    12:00 +10°C° 0 mm 3 m/s 752 mmHg 65%
    13:00 +10°C° 0 mm 3 m/s 752 mmHg 61%
    14:00 +11°C° 0 mm 3 m/s 752 mmHg 57%
    15:00 +10°C° 0 mm 2 m/s 752 mmHg 61%
    16:00 +10°C° 0 mm 1 m/s 752 mmHg 65%
    17:00 +9°C° 0 mm 1 m/s 752 mmHg 69%
    18:00 +8°C° 0 mm 1 m/s 752 mmHg 72%
    19:00 +8°C° 0 mm 1 m/s 752 mmHg 75%
    20:00 +7°C° 0 mm 1 m/s 752 mmHg 78%
    21:00 +7°C° 0 mm 1 m/s 751 mmHg 80%
    22:00 +5°C° 0 mm 2 m/s 751 mmHg 81%
    23:00 +5°C° 0 mm 2 m/s 751 mmHg 82%

    22 Outubro, Segunda-feira

    Tempo Temperatura Precipitação Vento Pressão Humidade
    00:00 +4°C° 0 mm 3 m/s 751 mmHg 82%
    01:00 +4°C° 0 mm 3 m/s 751 mmHg 82%
    02:00 +4°C° 0 mm 3 m/s 750 mmHg 82%
    03:00 +5°C° 0 mm 3 m/s 750 mmHg 82%
    04:00 +5°C° 0 mm 4 m/s 750 mmHg 81%
    05:00 +5°C° 0 mm 4 m/s 749 mmHg 81%
    06:00 +6°C° 0 mm 4 m/s 749 mmHg 81%
    07:00 +6°C° 0 mm 5 m/s 749 mmHg 81%
    08:00 +6°C° 0 mm 5 m/s 749 mmHg 81%
    09:00 +7°C° 0.1 mm 5 m/s 748 mmHg 80%
    10:00 +8°C° 0.1 mm 5 m/s 748 mmHg 79%
    11:00 +9°C° 0.1 mm 5 m/s 748 mmHg 78%
    12:00 +8°C° 0.3 mm 5 m/s 748 mmHg 79%
    13:00 +8°C° 0.3 mm 5 m/s 748 mmHg 81%
    14:00 +8°C° 0.3 mm 5 m/s 747 mmHg 82%
    15:00 +8°C° 0.1 mm 5 m/s 747 mmHg 82%
    16:00 +8°C° 0.1 mm 4 m/s 747 mmHg 81%
    17:00 +8°C° 0.1 mm 4 m/s 747 mmHg 81%
    18:00 +7°C° 0 mm 4 m/s 748 mmHg 84%
    19:00 +7°C° 0 mm 3 m/s 748 mmHg 87%
    20:00 +5°C° 0 mm 3 m/s 748 mmHg 90%
    21:00 +5°C° 0 mm 3 m/s 748 mmHg 90%
    22:00 +4°C° 0 mm 3 m/s 747 mmHg 91%
    23:00 +5°C° 0 mm 2 m/s 747 mmHg 91%

    23 Outubro, Terça-feira

    Tempo Temperatura Precipitação Vento Pressão Humidade
    00:00 +4°C° 0 mm 2 m/s 747 mmHg 91%
    01:00 +4°C° 0 mm 2 m/s 746 mmHg 91%
    02:00 +4°C° 0 mm 2 m/s 746 mmHg 91%
    03:00 +4°C° 0 mm 2 m/s 745 mmHg 91%
    04:00 +3°C° 0 mm 2 m/s 745 mmHg 92%
    05:00 +2°C° 0 mm 3 m/s 744 mmHg 92%
    06:00 +2°C° 0 mm 3 m/s 744 mmHg 91%
    07:00 +3°C° 0 mm 3 m/s 743 mmHg 90%
    08:00 +3°C° 0 mm 3 m/s 742 mmHg 89%
    09:00 +4°C° 0 mm 4 m/s 742 mmHg 82%
    10:00 +6°C° 0 mm 4 m/s 741 mmHg 76%
    11:00 +7°C° 0 mm 5 m/s 741 mmHg 69%
    12:00 +7°C° 0 mm 5 m/s 740 mmHg 67%
    13:00 +8°C° 0 mm 5 m/s 739 mmHg 65%
    14:00 +8°C° 0 mm 6 m/s 739 mmHg 63%
    15:00 +7°C° 0.1 mm 5 m/s 738 mmHg 67%
    16:00 +7°C° 0.1 mm 5 m/s 738 mmHg 71%
    17:00 +6°C° 0.1 mm 4 m/s 737 mmHg 75%
    18:00 +6°C° 0.2 mm 4 m/s 737 mmHg 79%
    19:00 +5°C° 0.2 mm 4 m/s 737 mmHg 82%
    20:00 +5°C° 0.2 mm 4 m/s 737 mmHg 85%
    21:00 +4°C° 0 mm 3 m/s 737 mmHg 87%
    22:00 +3°C° 0 mm 3 m/s 738 mmHg 90%
    23:00 +3°C° 0 mm 3 m/s 738 mmHg 92%
    Mostrar mais